Coraopolis, PA

1:57 PM EST on December 02, 2016 (GMT -0500)
Pittsburgh International

Weather History for KPIT - June, 2014

Change the Weather History Date:

Wednesday, June 4, 2014

  Actual Average Record
Temperature  
Mean Temperature 66 °F 66 °F  
Max Temperature 75 °F 76 °F 98 °F (1895)
Min Temperature 57 °F 55 °F 41 °F (1977)
Degree Days  
Heating Degree Days 0 3  
Month to date heating degree days 0 12  
Since 1 June heating degree days 0 12  
Since 1 July heating degree days 6008 5684  
Cooling Degree Days 1 3  
Month to date cooling degree days 21 12  
Year to date cooling degree days 95 64  
Since 1 June cooling degree days 21 12  
Growing Degree Days 16 (Base 50)    
Moisture  
Dew Point 57 °F    
Average Humidity 71    
Maximum Humidity 93    
Minimum Humidity 49    
Precipitation  
Precipitation 0.35 in 0.14 in 1.87 in (1941)
Month to date precipitation 0.41 0.57  
Year to date precipitation 15.50 15.67  
Snow  
Snow 0.00 in 0.00 in 0.00 in (2002)
Month to date snowfall 0.0 0.0  
Since 1 July snowfall 63.4 41.9  
Snow Depth 0.00 in    
Sea Level Pressure  
Sea Level Pressure 29.86 in    
Wind  
Wind Speed 6 mph (NE)    
Max Wind Speed 17 mph    
Max Gust Speed 21 mph    
Visibility 9 miles    
Events Rain    
T = Trace of Precipitation, MM = Missing Value Source: NWS Daily Summary

Daily Weather History Graph

Daily Weather History Graph

Search for Another Location

Airport or City:

Trip Planner

Search our weather history database for the weather conditions in past years. The results will help you decide how hot, cold, wet, or windy it might be!

Date:

Astronomy

Jun. 04, 2014 Rise Set
Actual Time 5:51 AM EDT 8:47 PM EDT
Civil Twilight 5:18 AM EDT 9:19 PM EDT
Nautical Twilight 4:37 AM EDT 10:01 PM EDT
Astronomical Twilight 3:49 AM EDT 10:49 PM EDT
Moon 12:10 PM EDT (6/4) 12:44 AM EDT (6/4)
Length of Visible Light 16h 01m
Length of Day
14h 55m
Waxing Crescent, 39% of the Moon is Illuminated
Jun 4
Waxing Crescent
Jun 5
First Quarter
Jun 13
Full
Jun 19
Last Quarter
Jun 27
New

Hourly Weather History & Observations

Time (EDT) Temp. Dew Point Humidity Pressure Visibility Wind Dir Wind Speed Gust Speed Precip Events Conditions
12:51 AM 64.0 °F 60.1 °F 87% 29.93 in 10.0 mi Calm Calm - N/A   Partly Cloudy
1:51 AM 62.1 °F 57.9 °F 86% 29.94 in 10.0 mi West 3.5 mph - N/A   Partly Cloudy
2:51 AM 60.1 °F 55.0 °F 83% 29.93 in 10.0 mi WNW 5.8 mph - N/A   Partly Cloudy
3:51 AM 61.0 °F 54.0 °F 78% 29.94 in 10.0 mi Calm Calm - N/A   Partly Cloudy
4:51 AM 60.8 °F 53.6 °F 77% 29.93 in 10.0 mi Calm Calm - N/A   Partly Cloudy
5:51 AM 59.0 °F 54.0 °F 83% 29.93 in 10.0 mi Calm Calm - N/A   Scattered Clouds
6:51 AM 61.0 °F 54.0 °F 78% 29.95 in 10.0 mi North 4.6 mph - N/A   Mostly Cloudy
7:51 AM 63.0 °F 55.0 °F 75% 29.94 in 10.0 mi ENE 3.5 mph - N/A   Mostly Cloudy
8:51 AM 66.9 °F 55.0 °F 66% 29.94 in 10.0 mi East 4.6 mph - N/A   Scattered Clouds
9:51 AM 69.1 °F 57.0 °F 65% 29.92 in 10.0 mi ESE 4.6 mph - N/A   Overcast
10:51 AM 70.0 °F 55.9 °F 61% 29.93 in 10.0 mi Variable 3.5 mph - N/A   Overcast
11:51 AM 73.0 °F 54.0 °F 51% 29.91 in 10.0 mi Calm Calm - N/A   Overcast
12:51 PM 73.9 °F 55.9 °F 53% 29.89 in 10.0 mi Variable 3.5 mph - N/A   Overcast
1:51 PM 73.9 °F 54.0 °F 50% 29.87 in 10.0 mi WSW 4.6 mph - N/A   Overcast
2:51 PM 73.9 °F 55.0 °F 52% 29.85 in 10.0 mi SSE 4.6 mph - N/A   Overcast
3:51 PM 73.9 °F 55.9 °F 53% 29.84 in 10.0 mi Calm Calm - 0.00 in Rain Light Rain
4:51 PM 70.0 °F 62.1 °F 76% 29.81 in 10.0 mi East 6.9 mph - 0.00 in Rain Light Rain
5:51 PM 66.2 °F 62.6 °F 88% 29.78 in 6.0 mi ENE 8.1 mph - N/A Rain Light Rain
6:51 PM 64.0 °F 61.0 °F 90% 29.77 in 6.0 mi East 9.2 mph - 0.05 in Rain Light Rain
7:51 PM 62.1 °F 59.0 °F 90% 29.75 in 10.0 mi East 8.1 mph - 0.02 in Rain Light Rain
8:51 PM 61.0 °F 57.9 °F 90% 29.75 in 6.0 mi NE 9.2 mph - 0.00 in Rain Light Rain
9:51 PM 60.1 °F 57.9 °F 93% 29.72 in 4.0 mi ENE 13.8 mph - 0.07 in Rain Light Rain
10:32 PM 60.1 °F 57.9 °F 93% 29.73 in 7.0 mi NE 9.2 mph - 0.02 in Rain Light Rain
10:51 PM 60.1 °F 57.9 °F 93% 29.74 in 4.0 mi NE 10.4 mph - 0.03 in Rain Light Rain
11:51 PM 59.0 °F 57.9 °F 96% 29.73 in 4.0 mi NNE 12.7 mph - 0.07 in Rain Light Rain